^^
Station Historical Data
Daily Summary for Nil La, TWC- Units:  Metric    English   Both
« Previous Day
Next Day »
Daily Weekly Monthly Yearly Custom
  High: Low: Average:
Temperature: -17.8 °C 6.9 °C 14.7 °C
Dew Point: -17.8 °C -10.9 °C -8.1 °C
Humidity: Humidity% 11% 21%
Wind Speed: 0km/h 0km/h 1.9km/h
Wind Gust: 0km/h - -
Wind- - West
Pressure: 0 hPa 1013.1 hPa -
Precipitation: 0 mm    
Historical Graphs
 
 
Tabular Data for Nil La, TWC-
Time Temperature Dew Point Pressure Wind Wind Speed Wind Gust Humidity Rainfall Rate (Hourly) solar Conditions
-17.8 °C -17.8 °C 0 hPa Calm     Humidity% 0 mm SolarRadiationWatts/m^2 W/m2 Conditions
00:04 11.7 °C -10.5 °C 1018.8 hPa Calm   1.6 km/h 20% 0 mm 0.00 W/m2
00:09 11.7 °C -10.5 °C 1018.8 hPa Calm   4.8 km/h 20% 0 mm 0.00 W/m2
00:14 11.7 °C -10.5 °C 1018.8 hPa Calm   3.2 km/h 20% 0 mm 0.00 W/m2
00:19 11.6 °C -10.6 °C 1018.8 hPa Calm   3.2 km/h 20% 0 mm 0.00 W/m2
00:24 11.6 °C -10.6 °C 1018.8 hPa Calm   3.2 km/h 20% 0 mm 0.00 W/m2
00:29 11.6 °C -10.6 °C 1018.8 hPa East 4.7 km/h 4.8 km/h 20% 0 mm 0.00 W/m2
00:34 11.5 °C -10.7 °C 1018.5 hPa Calm   3.2 km/h 20% 0 mm 0.00 W/m2
00:39 11.5 °C -10.7 °C 1018.8 hPa Calm   6.4 km/h 20% 0 mm 0.00 W/m2
00:44 11.4 °C -10.8 °C 1018.5 hPa Calm   3.2 km/h 20% 0 mm 0.00 W/m2
00:49 11.4 °C -10.8 °C 1018.8 hPa Calm   4.8 km/h 20% 0 mm 0.00 W/m2
00:54 11.3 °C -10.9 °C 1018.5 hPa Calm   8 km/h 20% 0 mm 0.00 W/m2
00:59 11.3 °C -10.9 °C 1018.5 hPa Calm   8 km/h 20% 0 mm 0.00 W/m2
01:04 11.3 °C -10.9 °C 1018.5 hPa Calm   4.8 km/h 20% 0 mm 0.00 W/m2
01:09 11.2 °C -10.3 °C 1018.5 hPa Calm   3.2 km/h 21% 0 mm 0.00 W/m2
01:14 11.2 °C -10.3 °C 1018.5 hPa Calm   4.8 km/h 21% 0 mm 0.00 W/m2
01:19 11.1 °C -10.4 °C 1018.5 hPa Calm   1.6 km/h 21% 0 mm 0.00 W/m2
01:24 11 °C -10.5 °C 1018.5 hPa Calm   6.4 km/h 21% 0 mm 0.00 W/m2
01:29 10.9 °C -10.6 °C 1018.5 hPa Calm   3.2 km/h 21% 0 mm 0.00 W/m2
01:33 10.9 °C -10.6 °C 1018.5 hPa ENE 1.4 km/h 3.2 km/h 21% 0 mm 0.00 W/m2
01:39 10.9 °C -10.6 °C 1018.2 hPa Calm   1.6 km/h 21% 0 mm 0.00 W/m2
01:44 10.9 °C -10.6 °C 1018.5 hPa Calm   4.8 km/h 21% 0 mm 0.00 W/m2
01:49 10.9 °C -10.6 °C 1018.2 hPa Calm   4.8 km/h 21% 0 mm 0.00 W/m2
01:54 10.8 °C -10.7 °C 1018.2 hPa Calm   1.6 km/h 21% 0 mm 0.00 W/m2
01:59 10.8 °C -10.1 °C 1018.2 hPa Calm   1.6 km/h 22% 0 mm 0.00 W/m2
02:04 10.8 °C -10.1 °C 1018.2 hPa Calm   1.6 km/h 22% 0 mm 0.00 W/m2
02:09 10.8 °C -10.1 °C 1018.2 hPa Calm   1.6 km/h 22% 0 mm 0.00 W/m2
02:14 10.8 °C -10.1 °C 1018.2 hPa Calm   1.6 km/h 22% 0 mm 0.00 W/m2
02:19 10.8 °C -10.1 °C 1018.2 hPa Calm   3.2 km/h 22% 0 mm 0.00 W/m2
02:24 10.7 °C -10.2 °C 1018.2 hPa Calm   1.6 km/h 22% 0 mm 0.00 W/m2
02:29 10.7 °C -10.2 °C 1017.8 hPa Calm   1.6 km/h 22% 0 mm 0.00 W/m2
02:34 10.6 °C -10.3 °C 1017.8 hPa Calm     22% 0 mm 0.00 W/m2
02:39 10.4 °C -10.4 °C 1017.8 hPa Calm   1.6 km/h 22% 0 mm 0.00 W/m2
02:44 10.4 °C -10.4 °C 1017.8 hPa Calm   3.2 km/h 22% 0 mm 0.00 W/m2
02:49 10.3 °C -10.5 °C 1017.8 hPa Calm   1.6 km/h 22% 0 mm 0.00 W/m2
02:54 10.2 °C -10 °C 1018.2 hPa Calm   1.6 km/h 23% 0 mm 0.00 W/m2
02:59 10.2 °C -10 °C 1017.8 hPa Calm   1.6 km/h 23% 0 mm 0.00 W/m2
03:04 10.2 °C -10 °C 1017.8 hPa Calm     23% 0 mm 0.00 W/m2
03:09 10.2 °C -10 °C 1017.8 hPa Calm   1.6 km/h 23% 0 mm 0.00 W/m2
03:14 10.2 °C -10 °C 1017.8 hPa Calm     23% 0 mm 0.00 W/m2
03:19 10.2 °C -10.6 °C 1017.8 hPa Calm   1.6 km/h 22% 0 mm 0.00 W/m2
03:24 10.2 °C -10.6 °C 1017.5 hPa Calm   1.6 km/h 22% 0 mm 0.00 W/m2
03:29 10.2 °C -10 °C 1017.5 hPa Calm     23% 0 mm 0.00 W/m2
03:34 10.1 °C -10.1 °C 1017.5 hPa Calm     23% 0 mm 0.00 W/m2
03:39 10.1 °C -10.1 °C 1017.5 hPa Calm     23% 0 mm 0.00 W/m2
03:44 10.1 °C -10.1 °C 1017.5 hPa Calm     23% 0 mm 0.00 W/m2
03:49 10.1 °C -10.7 °C 1017.5 hPa Calm     22% 0 mm 0.00 W/m2
03:54 10.1 °C -10.7 °C 1017.5 hPa Calm   1.6 km/h 22% 0 mm 0.00 W/m2
03:59 10.1 °C -10.7 °C 1017.2 hPa Calm     22% 0 mm 0.00 W/m2
04:04 10.1 °C -10.7 °C 1017.5 hPa Calm     22% 0 mm 0.00 W/m2
04:09 10 °C -10.8 °C 1017.5 hPa Calm     22% 0 mm 0.00 W/m2
04:14 9.9 °C -10.8 °C 1017.5 hPa Calm   1.6 km/h 22% 0 mm 0.00 W/m2
04:19 9.9 °C -10.3 °C 1017.5 hPa Calm     23% 0 mm 0.00 W/m2
04:24 9.8 °C -10.4 °C 1017.2 hPa Calm     23% 0 mm 0.00 W/m2
04:29 9.7 °C -10.5 °C 1017.2 hPa Calm     23% 0 mm 0.00 W/m2
04:34 9.6 °C -10.5 °C 1017.2 hPa Calm     23% 0 mm 0.00 W/m2
04:38 9.4 °C -10.2 °C 1017.2 hPa Calm     24% 0 mm 0.00 W/m2
04:43 9.2 °C -9.8 °C 1017.2 hPa Calm     25% 0 mm 0.00 W/m2
04:49 9.1 °C -9.9 °C 1017.2 hPa Calm     25% 0 mm 0.00 W/m2
04:54 8.9 °C -10.1 °C 1017.2 hPa Calm     25% 0 mm 0.00 W/m2
04:59 8.7 °C -10.3 °C 1017.2 hPa Calm     25% 0 mm 0.00 W/m2
05:04 8.6 °C -9.4 °C 1017.2 hPa Calm     27% 0 mm 0.00 W/m2
05:09 8.4 °C -9.5 °C 1017.2 hPa Calm     27% 0 mm 0.00 W/m2
05:14 8.3 °C -9.6 °C 1017.2 hPa Calm     27% 0 mm 0.00 W/m2
05:19 8.1 °C -9.3 °C 1017.2 hPa Calm     28% 0 mm 0.00 W/m2
05:24 7.9 °C -9.5 °C 1017.2 hPa Calm     28% 0 mm 0.00 W/m2
05:29 7.7 °C -9.2 °C 1017.2 hPa Calm     29% 0 mm 0.00 W/m2
05:34 7.6 °C -9.3 °C 1017.2 hPa Calm     29% 0 mm 0.00 W/m2
05:39 7.5 °C -9.4 °C 1017.2 hPa Calm     29% 0 mm 0.00 W/m2
05:44 7.4 °C -10.4 °C 1017.2 hPa Calm     27% 0 mm 0.00 W/m2
05:49 7.4 °C -10.4 °C 1017.2 hPa Calm   1.6 km/h 27% 0 mm 0.00 W/m2
05:54 7.6 °C -10.2 °C 1017.2 hPa Calm   1.6 km/h 27% 0 mm 0.00 W/m2
05:59 7.8 °C -10.5 °C 1016.8 hPa East 3.2 km/h 3.2 km/h 26% 0 mm 0.00 W/m2
06:04 7.9 °C -10.4 °C 1016.8 hPa Calm   3.2 km/h 26% 0 mm 0.00 W/m2
06:09 8.1 °C -10.3 °C 1016.8 hPa Calm   4.8 km/h 26% 0 mm 0.00 W/m2
06:14 8.2 °C -10.2 °C 1016.8 hPa Calm     26% 0 mm 0.00 W/m2
06:18 8.3 °C -10.1 °C 1016.8 hPa ENE 1.4 km/h 3.2 km/h 26% 0 mm 0.00 W/m2
06:24 8.3 °C -10.1 °C 1017.2 hPa Calm     26% 0 mm 0.00 W/m2
06:29 8.3 °C -10.1 °C 1017.2 hPa Calm     26% 0 mm 0.00 W/m2
06:34 8.3 °C -10.1 °C 1017.2 hPa Calm     26% 0 mm 0.00 W/m2
06:39 8.2 °C -9.7 °C 1017.2 hPa Calm     27% 0 mm 0.00 W/m2
06:44 8.1 °C -9.8 °C 1017.2 hPa Calm     27% 0 mm 0.00 W/m2
06:49 7.9 °C -9.5 °C 1017.2 hPa Calm     28% 0 mm 0.00 W/m2
06:54 7.8 °C -9.1 °C 1017.5 hPa Calm     29% 0 mm 0.00 W/m2
06:58 7.7 °C -9.2 °C 1017.2 hPa Calm     29% 0 mm 0.00 W/m2
07:04 7.6 °C -9.3 °C 1017.2 hPa Calm     29% 0 mm 0.00 W/m2
07:09 7.4 °C -9.1 °C 1017.2 hPa Calm     30% 0 mm 0.00 W/m2
07:14 7.3 °C -8.7 °C 1017.5 hPa Calm     31% 0 mm 0.00 W/m2
07:19 7.2 °C -8.8 °C 1017.5 hPa Calm     31% 0 mm 5.00 W/m2
07:24 7 °C -8.6 °C 1017.5 hPa Calm     32% 0 mm 9.00 W/m2
07:29 6.9 °C -8.3 °C 1017.5 hPa Calm     33% 0 mm 11.00 W/m2
07:34 6.9 °C -7.9 °C 1017.5 hPa Calm     34% 0 mm 12.00 W/m2
07:38 6.9 °C -7.9 °C 1017.5 hPa Calm     34% 0 mm 14.00 W/m2
07:44 7 °C -8.2 °C 1017.5 hPa Calm     33% 0 mm 16.00 W/m2
07:49 7.1 °C -7.7 °C 1017.8 hPa Calm     34% 0 mm 18.00 W/m2
07:54 7.1 °C -8.1 °C 1017.8 hPa Calm   1.6 km/h 33% 0 mm 19.00 W/m2
07:59 7.2 °C -8.4 °C 1017.8 hPa Calm   1.6 km/h 32% 0 mm 21.00 W/m2
08:04 7.4 °C -7.8 °C 1017.8 hPa Calm   1.6 km/h 33% 0 mm 23.00 W/m2
08:09 7.9 °C -7.8 °C 1017.8 hPa Calm     32% 0 mm 25.00 W/m2
08:14 8.2 °C -7.1 °C 1017.8 hPa Calm     33% 0 mm 26.00 W/m2
08:18 8.3 °C -7.4 °C 1017.8 hPa Calm     32% 0 mm 26.00 W/m2
08:24 8.4 °C -6.2 °C 1017.8 hPa Calm     35% 0 mm 28.00 W/m2
08:29 8.7 °C -6.3 °C 1017.8 hPa Calm     34% 0 mm 28.00 W/m2
08:34 8.9 °C -6.1 °C 1017.8 hPa Calm     34% 0 mm 30.00 W/m2
08:39 9.3 °C -5.8 °C 1017.8 hPa Calm     34% 0 mm 32.00 W/m2
08:44 9.5 °C -5.6 °C 1017.8 hPa Calm     34% 0 mm 35.00 W/m2
08:49 9.8 °C -5.7 °C 1017.8 hPa Calm     33% 0 mm 42.00 W/m2
08:54 10.2 °C -5.8 °C 1017.8 hPa Calm   1.6 km/h 32% 0 mm 35.00 W/m2
08:59 10.8 °C -6.1 °C 1017.8 hPa Calm     30% 0 mm 35.00 W/m2
09:04 11.3 °C -6.6 °C 1017.8 hPa Calm   1.6 km/h 28% 0 mm 37.00 W/m2
09:09 12.1 °C -7.3 °C 1017.8 hPa Calm   1.6 km/h 25% 0 mm 37.00 W/m2
09:14 12.8 °C -7.8 °C 1017.8 hPa Calm   1.6 km/h 23% 0 mm 39.00 W/m2
09:19 13.4 °C -7.3 °C 1017.8 hPa Calm   1.6 km/h 23% 0 mm 40.00 W/m2
09:24 14.1 °C -7.3 °C 1018.2 hPa NNW 1.4 km/h 1.6 km/h 22% 0 mm 40.00 W/m2
09:29 14.6 °C -6.9 °C 1017.8 hPa Calm   4.8 km/h 22% 0 mm 42.00 W/m2
09:34 15.2 °C -7 °C 1018.2 hPa Calm   1.6 km/h 21% 0 mm 58.00 W/m2
09:39 15.7 °C -7.2 °C 1017.8 hPa NW 1.4 km/h 3.2 km/h 20% 0 mm 478.00 W/m2
09:44 16.5 °C -6.6 °C 1018.2 hPa NW 3.2 km/h 3.2 km/h 20% 0 mm 496.00 W/m2
09:48 17.1 °C -6.7 °C 1017.8 hPa Calm   8 km/h 19% 0 mm 510.00 W/m2
09:54 17.8 °C -6.9 °C 1017.8 hPa Calm   4.8 km/h 18% 0 mm 526.00 W/m2
09:59 18.4 °C -7.1 °C 1017.8 hPa Calm   3.2 km/h 17% 0 mm 541.00 W/m2
10:04 18.9 °C -6.7 °C 1017.8 hPa NNW 7.9 km/h 8 km/h 17% 0 mm 557.00 W/m2
10:09 19.6 °C -6.9 °C 1017.8 hPa NNW 3.2 km/h 8 km/h 16% 0 mm 571.00 W/m2
10:14 20.1 °C -6.5 °C 1017.8 hPa Calm   8 km/h 16% 0 mm 587.00 W/m2
10:19 20.4 °C -6.3 °C 1017.8 hPa NNW 3.2 km/h 8 km/h 16% 0 mm 601.00 W/m2
10:24 20.7 °C -6.9 °C 1017.5 hPa Calm   3.2 km/h 15% 0 mm 615.00 W/m2
10:29 21 °C -6.6 °C 1017.5 hPa NW 1.4 km/h 14.5 km/h 15% 0 mm 624.00 W/m2
10:34 21.3 °C -6.4 °C 1017.5 hPa Calm   6.4 km/h 15% 0 mm 640.00 W/m2
10:39 21.7 °C -6.1 °C 1017.5 hPa Calm   6.4 km/h 15% 0 mm 652.00 W/m2
10:44 21.9 °C -6.8 °C 1017.5 hPa NE 4.7 km/h 12.9 km/h 14% 0 mm 664.00 W/m2
10:49 22.1 °C -6.7 °C 1017.5 hPa West 1.4 km/h 6.4 km/h 14% 0 mm 677.00 W/m2
10:54 22.4 °C -6.4 °C 1017.5 hPa NNW 1.4 km/h 11.3 km/h 14% 0 mm 687.00 W/m2
10:59 22.7 °C -6.2 °C 1017.5 hPa NNW 7.9 km/h 8 km/h 14% 0 mm 700.00 W/m2
11:04 22.9 °C -6 °C 1017.2 hPa North 3.2 km/h 6.4 km/h 14% 0 mm 710.00 W/m2
11:09 23.1 °C -5.9 °C 1017.2 hPa NNW 6.4 km/h 8 km/h 14% 0 mm 717.00 W/m2
11:14 23.3 °C -5.7 °C 1017.2 hPa WNW 3.2 km/h 11.3 km/h 14% 0 mm 729.00 W/m2
11:19 23.4 °C -4.7 °C 1017.2 hPa North 3.2 km/h 3.2 km/h 15% 0 mm 737.00 W/m2
11:24 23.4 °C -5.6 °C 1016.8 hPa NW 6.4 km/h 12.9 km/h 14% 0 mm 742.00 W/m2
11:29 23.4 °C -5.6 °C 1016.8 hPa NNW 9.7 km/h 11.3 km/h 14% 0 mm 752.00 W/m2
11:34 23.5 °C -5.5 °C 1016.8 hPa NW 13 km/h 14.5 km/h 14% 0 mm 761.00 W/m2
11:39 23.6 °C -5.5 °C 1016.8 hPa WNW 7.9 km/h 12.9 km/h 14% 0 mm 765.00 W/m2
11:44 23.8 °C -5.3 °C 1016.5 hPa Calm   9.7 km/h 14% 0 mm 772.00 W/m2
11:48 24 °C -5.2 °C 1016.5 hPa NW 11.1 km/h 16.1 km/h 14% 0 mm 777.00 W/m2
11:54 24.1 °C -5.1 °C 1016.5 hPa NNW 4.7 km/h 14.5 km/h 14% 0 mm 780.00 W/m2
11:59 24.1 °C -6 °C 1016.1 hPa NNW 4.7 km/h 16.1 km/h 13% 0 mm 786.00 W/m2
12:04 24.1 °C -5.1 °C 1016.1 hPa NNW 6.4 km/h 22.5 km/h 14% 0 mm 793.00 W/m2
12:09 24.2 °C -5 °C 1016.1 hPa NW 17.7 km/h 17.7 km/h 14% 0 mm 793.00 W/m2
12:14 24.3 °C -4.9 °C 1016.1 hPa NW 6.4 km/h 6.4 km/h 14% 0 mm 796.00 W/m2
12:19 24.6 °C -4.7 °C 1015.8 hPa NNE 7.9 km/h 12.9 km/h 14% 0 mm 803.00 W/m2
12:24 24.8 °C -5.5 °C 1015.8 hPa Calm   8 km/h 13% 0 mm 805.00 W/m2
12:29 24.9 °C -5.4 °C 1015.5 hPa WNW 13 km/h 14.5 km/h 13% 0 mm 812.00 W/m2
12:34 25.1 °C -4.3 °C 1015.5 hPa Calm   16.1 km/h 14% 0 mm 809.00 W/m2
12:39 25.2 °C -5.2 °C 1015.5 hPa NNW 9.7 km/h 20.9 km/h 13% 0 mm 809.00 W/m2
12:44 25.3 °C -4.1 °C 1015.5 hPa West 11.1 km/h 14.5 km/h 14% 0 mm 814.00 W/m2
12:49 25.6 °C -3.9 °C 1015.5 hPa Calm   19.3 km/h 14% 0 mm 810.00 W/m2
12:54 25.6 °C -4.9 °C 1015.1 hPa West 3.2 km/h 19.3 km/h 13% 0 mm 809.00 W/m2
12:59 25.6 °C -4.9 °C 1015.1 hPa WNW 1.4 km/h 11.3 km/h 13% 0 mm 805.00 W/m2
13:04 25.6 °C -4.9 °C 1015.1 hPa WNW 6.4 km/h 11.3 km/h 13% 0 mm 814.00 W/m2
13:09 25.7 °C -4.8 °C 1014.8 hPa NNW 6.4 km/h 17.7 km/h 13% 0 mm 805.00 W/m2
13:14 25.8 °C -4.7 °C 1014.8 hPa WSW 6.4 km/h 12.9 km/h 13% 0 mm 802.00 W/m2
13:19 25.9 °C -4.6 °C 1014.8 hPa Calm   11.3 km/h 13% 0 mm 803.00 W/m2
13:24 26.1 °C -4.5 °C 1014.4 hPa Calm   6.4 km/h 13% 0 mm 795.00 W/m2
13:29 26.2 °C -4.4 °C 1014.4 hPa Calm   22.5 km/h 13% 0 mm 795.00 W/m2
13:34 26.2 °C -4.4 °C 1014.4 hPa WNW 7.9 km/h 22.5 km/h 13% 0 mm 788.00 W/m2
13:39 26.3 °C -4.3 °C 1014.1 hPa NW 6.4 km/h 24.1 km/h 13% 0 mm 786.00 W/m2
13:44 26.3 °C -4.3 °C 1014.1 hPa NNW 11.1 km/h 20.9 km/h 13% 0 mm 777.00 W/m2
13:49 26.3 °C -4.3 °C 1014.1 hPa NW 9.7 km/h 19.3 km/h 13% 0 mm 773.00 W/m2
13:54 26.4 °C -4.2 °C 1014.1 hPa NNW 4.7 km/h 6.4 km/h 13% 0 mm 768.00 W/m2
13:59 26.6 °C -4.1 °C 1013.8 hPa North 13 km/h 19.3 km/h 13% 0 mm 761.00 W/m2
14:04 26.6 °C -4.1 °C 1013.8 hPa NNW 6.4 km/h 16.1 km/h 13% 0 mm 747.00 W/m2
14:09 26.4 °C -4.2 °C 1013.8 hPa WNW 4.7 km/h 16.1 km/h 13% 0 mm 745.00 W/m2
14:13 26.5 °C -4.2 °C 1013.8 hPa WNW 14.3 km/h 20.9 km/h 13% 0 mm 740.00 W/m2
14:19 26.7 °C -5.1 °C 1013.8 hPa Calm   14.5 km/h 12% 0 mm 735.00 W/m2
14:24 26.9 °C -3.8 °C 1013.4 hPa Calm   9.7 km/h 13% 0 mm 722.00 W/m2
14:29 27.1 °C -4.8 °C 1013.4 hPa West 7.9 km/h 14.5 km/h 12% 0 mm 712.00 W/m2
14:34 27.4 °C -4.5 °C 1013.4 hPa West 3.2 km/h 9.7 km/h 12% 0 mm 710.00 W/m2
14:39 27.3 °C -5.8 °C 1013.4 hPa West 9.7 km/h 9.7 km/h 11% 0 mm 701.00 W/m2
14:44 27.3 °C -5.8 °C 1013.4 hPa NNW 4.7 km/h 11.3 km/h 11% 0 mm 687.00 W/m2
14:49 27.3 °C -5.8 °C 1013.1 hPa West 1.4 km/h 11.3 km/h 11% 0 mm 680.00 W/m2
14:54 27.4 °C -5.7 °C 1013.1 hPa West 7.9 km/h 14.5 km/h 11% 0 mm 668.00 W/m2
14:59 27.5 °C -5.6 °C 1013.1 hPa WNW 16.3 km/h 16.1 km/h 11% 0 mm 657.00 W/m2
Olympia, Windhoek, Namibia
Compliments of Weather Underground - 2.75 mb